Lapse_Rate
6.4 6.6 5.7 6.1 6.5 6.7 6.8 6.7 6.7 7.2 7.4 7.9 8.2 7.9 7.9 8.3 8.4 8.6 8.6 8.3 8.6 8.6 8.9 8.8 8.4 8.4 8.6 8.7 8.7 8.9 8.8 8.6 8.7 8.4 7.7 7.2 7.0 6.7 6.7 6.5 6.3 6.4 6.3 6.2
5.9 6.2 6.6 6.9 6.5 6.8 6.4 6.3 6.5 6.5 7.3 7.4 7.4 7.4 7.6 8.0 8.2 8.4 8.3 8.4 8.6 8.6 8.9 8.6 8.4 8.3 8.6 8.8 8.8 9.1 8.7 8.7 8.6 8.1 7.5 7.1 6.7 6.6 6.6 6.2 6.2 6.3 6.2 6.1
6.8 6.8 7.1 6.9 6.7 6.2 6.0 6.1 6.7 7.0 7.2 7.0 7.1 6.8 6.9 7.5 7.8 8.1 8.4 8.3 8.6 8.8 8.8 8.5 8.3 8.4 8.5 8.6 9.1 8.7 8.7 8.6 8.3 7.7 7.1 6.9 6.6 6.6 6.4 6.2 6.2 6.2 6.1 6.1
6.2 6.4 6.3 7.0 6.4 6.1 6.2 6.9 6.6 6.8 6.9 7.0 7.5 6.8 6.5 6.8 7.6 7.9 8.3 8.4 8.8 8.7 8.4 8.5 8.4 8.3 8.4 8.5 8.5 8.3 8.5 8.4 7.8 7.2 6.9 6.7 6.5 6.5 6.2 6.2 6.1 6.0 6.1 5.9
5.6 5.4 5.5 5.9 6.3 7.1 6.6 6.6 6.5 6.8 6.9 6.7 6.6 6.5 5.9 6.4 7.8 8.3 8.5 8.7 8.9 8.4 8.5 8.1 8.2 8.3 8.3 8.3 8.2 8.3 8.3 7.9 7.3 7.0 6.8 6.4 6.5 6.3 6.2 6.1 6.0 5.9 5.9 5.8
6.0 6.2 6.6 7.0 6.6 7.2 6.3 6.6 6.4 6.6 7.0 6.6 6.4 5.9 5.8 7.0 8.2 8.2 8.5 8.5 8.3 8.4 8.1 8.2 8.3 8.3 8.3 8.2 8.1 7.9 7.7 7.3 7.1 6.8 6.5 6.4 6.2 6.2 6.1 6.1 5.9 5.9 5.9 6.0
5.5 5.6 6.1 6.6 6.2 6.5 6.1 6.4 7.0 6.9 7.0 6.2 7.0 6.5 6.8 7.8 8.2 8.2 8.3 8.3 8.3 8.2 8.4 8.2 8.3 8.4 8.1 8.0 7.9 7.6 7.3 7.1 7.0 6.6 6.5 6.4 6.2 6.1 6.0 5.9 5.8 5.9 6.0 6.0
6.0 6.1 5.8 5.8 5.9 6.0 6.1 6.5 7.0 7.0 7.3 7.9 6.5 6.6 7.3 8.6 8.8 8.5 8.5 8.5 8.4 8.2 8.2 8.3 8.3 8.0 7.8 7.7 7.5 7.3 7.2 7.1 6.6 6.7 6.5 6.3 6.1 6.1 6.0 5.9 5.9 6.0 5.9 5.8
6.6 6.5 7.0 6.3 6.3 6.5 6.1 5.8 6.9 7.2 6.8 7.3 6.8 6.9 7.5 8.1 8.4 8.6 8.7 8.7 8.7 8.6 8.2 8.3 8.0 7.9 7.6 7.4 7.2 7.2 7.2 6.8 6.8 6.7 6.5 6.4 6.1 6.0 5.8 5.8 5.9 6.0 6.1 5.9
6.0 6.3 6.7 6.9 6.6 6.8 6.6 6.7 6.4 6.7 6.9 6.6 7.1 6.7 7.4 8.1 8.8 8.8 8.8 8.7 8.9 8.6 8.3 8.3 8.2 7.7 7.5 7.2 7.0 7.2 7.1 6.8 7.0 6.7 6.4 6.3 6.1 5.9 5.8 5.7 5.7 6.1 5.9 5.9
6.1 5.5 6.8 7.1 5.9 6.4 5.8 6.0 6.4 6.8 6.9 7.2 6.7 7.2 7.7 8.7 8.6 8.9 8.9 8.8 8.5 8.5 8.3 8.2 8.0 7.4 7.2 7.1 7.2 7.3 6.9 7.0 7.0 6.5 6.2 6.2 6.0 6.0 5.7 5.6 5.6 5.9 5.9 5.9
6.4 5.9 6.6 6.5 6.7 6.5 6.4 6.7 6.6 6.9 6.1 6.8 6.9 7.4 7.8 8.3 8.5 9.0 9.1 8.8 8.4 8.3 8.1 8.2 7.6 7.3 7.4 7.1 7.2 7.2 6.9 7.0 6.7 6.2 6.1 6.1 6.1 5.9 5.6 5.6 5.6 5.9 6.0 5.9
5.7 6.0 6.8 7.1 6.7 6.5 6.4 6.7 6.4 6.8 6.9 6.4 6.7 7.7 8.1 8.6 9.0 8.8 8.8 8.7 8.3 8.5 8.5 7.8 7.6 7.5 7.4 7.3 7.4 7.1 6.9 6.8 6.3 6.2 6.2 6.1 6.0 5.7 5.7 5.7 5.8 6.0 6.2 6.0
4.7 4.7 5.6 7.2 6.8 6.2 5.9 6.3 6.6 6.8 6.8 6.4 6.1 7.7 8.9 8.7 8.8 8.4 8.3 8.4 8.5 8.8 8.3 7.7 7.6 7.5 7.4 7.3 7.2 7.0 6.9 6.6 6.3 6.3 6.1 6.0 5.9 5.8 5.8 5.8 5.8 5.9 6.1 6.2
4.5 4.9 4.6 5.6 5.9 5.8 6.2 6.4 6.4 6.3 6.4 6.5 6.7 7.1 8.1 8.9 8.6 8.4 8.3 8.4 8.6 8.7 8.2 7.7 7.5 7.5 7.4 7.4 7.2 7.0 6.8 6.5 6.4 6.3 6.0 6.0 5.9 5.9 5.8 5.9 5.8 5.8 6.0 6.2
4.7 4.6 4.8 5.8 5.8 5.3 5.9 6.0 6.2 6.3 6.4 6.3 6.7 7.1 7.7 8.3 8.3 8.4 8.3 8.4 8.4 8.5 8.2 7.6 7.5 7.4 7.3 7.3 7.1 7.0 6.8 6.6 6.4 6.3 6.0 5.9 6.0 6.0 6.0 6.0 5.9 5.9 6.1 6.1
5.1 4.6 4.6 6.0 6.0 5.9 6.1 6.2 6.0 6.3 6.5 6.2 6.4 8.5 7.9 8.0 8.4 8.3 8.5 8.7 8.7 8.4 8.3 7.7 7.6 7.4 7.3 7.3 7.2 7.0 7.0 6.7 6.4 6.3 6.1 5.9 5.8 5.9 6.2 6.1 6.1 6.2 6.1 6.0
5.1 4.8 4.8 5.7 6.4 6.9 6.5 6.7 6.7 6.6 6.2 6.1 6.3 6.9 7.6 8.2 8.7 8.4 8.5 8.7 9.1 8.4 8.3 7.8 7.6 7.4 7.5 7.5 7.3 7.1 7.1 6.7 6.4 6.4 6.3 6.1 5.8 5.9 6.2 6.2 6.4 6.3 6.1 6.1
5.4 4.7 4.9 5.8 6.6 6.5 6.7 6.6 6.7 6.7 6.0 6.0 6.7 7.0 7.2 7.8 8.5 8.5 8.6 8.9 9.3 8.9 8.2 7.9 7.6 7.4 7.5 7.6 7.5 7.3 7.1 6.9 6.5 6.7 6.6 6.3 6.1 6.0 6.2 6.2 6.4 6.3 6.3 6.3
5.6 4.7 4.6 5.2 6.5 7.5 4.6 5.5 6.6 7.0 5.4 5.6 6.6 7.2 7.5 7.7 7.5 8.2 8.7 9.0 9.1 8.7 8.1 8.0 7.8 7.7 7.5 7.7 7.6 7.5 7.3 7.1 6.7 6.8 6.7 6.6 6.4 6.2 6.2 6.2 6.3 6.4 6.5 6.3
5.7 4.9 4.7 5.3 5.3 5.2 5.4 6.4 6.6 6.1 4.8 5.4 6.6 7.4 7.5 7.7 8.0 8.0 8.5 8.9 9.0 8.6 8.2 8.2 8.1 7.8 7.5 7.8 7.7 7.6 7.5 7.2 6.9 6.8 6.8 6.7 6.6 6.5 6.4 6.4 6.4 6.5 6.4 6.4
5.8 5.6 5.1 5.4 5.4 5.7 5.5 5.1 4.9 4.2 4.1 5.5 6.3 7.2 7.6 8.0 8.5 8.2 8.2 8.9 8.9 8.8 8.1 8.2 8.2 8.0 7.6 7.7 7.8 7.7 7.6 7.4 7.3 7.0 6.9 6.9 6.8 6.7 6.6 6.5 6.4 6.6 6.6 6.5
5.6 5.3 5.3 5.1 4.5 4.7 4.5 4.3 4.4 4.3 4.5 5.1 5.9 6.7 7.5 8.0 8.4 8.5 8.4 8.7 8.8 8.7 8.2 7.8 8.2 8.1 7.8 7.7 7.8 7.8 7.7 7.6 7.6 7.5 7.2 7.1 7.0 6.9 6.8 6.6 6.5 6.5 6.7 6.6
5.3 5.1 5.1 5.2 4.7 4.6 4.7 4.8 4.9 4.7 4.8 5.3 6.0 6.7 7.5 8.2 8.5 8.5 8.5 8.6 8.7 8.5 8.2 7.9 7.9 8.1 8.2 7.8 7.6 7.6 7.9 7.7 7.7 7.6 7.5 7.5 7.4 7.2 7.0 6.8 6.6 6.6 6.7 6.9
5.5 5.2 5.1 5.1 5.0 4.8 5.0 5.2 5.3 5.0 4.9 5.1 5.9 6.5 7.3 8.2 8.7 8.7 8.7 8.7 8.6 8.5 8.3 7.9 8.0 8.2 8.1 7.8 7.6 7.6 7.9 8.0 7.8 7.6 7.5 7.5 7.6 7.6 7.4 7.1 7.0 6.9 6.8 6.8
5.4 5.3 5.0 4.8 4.7 4.9 5.0 5.4 5.4 5.3 5.3 5.3 5.5 6.1 6.7 7.6 8.5 8.8 8.8 8.7 8.7 8.6 8.4 8.0 7.9 7.7 7.8 7.9 7.5 7.5 7.8 7.9 7.9 7.8 7.6 7.5 7.6 7.7 7.6 7.5 7.3 7.2 7.1 7.1
Wind_Speed
19 12 28 30 24 19 20 22 28 21 13 15 18 18 13 17 18 21 19 19 20 19 19 6 3 9 13 15 17 18 17 15 11 8 6 4 5 4 5 5 6 6 7 8
13 29 26 22 23 22 23 24 21 14 10 12 16 20 15 18 23 21 19 19 20 17 15 3 4 7 13 16 16 18 17 16 11 8 5 3 3 3 3 2 3 4 4 5
28 39 18 20 22 24 26 26 24 20 15 15 16 23 20 20 12 16 17 19 19 16 13 4 6 8 9 14 17 17 16 15 11 9 6 3 2 3 3 2 1 2 3 4
23 23 25 26 29 22 26 24 20 19 11 15 3 16 18 20 22 21 21 16 16 12 8 5 9 11 12 13 15 16 14 13 11 9 7 6 4 3 1 0 0 1 1 2
19 21 21 26 24 26 17 13 16 17 17 17 17 11 10 13 21 24 20 18 10 5 3 7 10 12 14 15 15 13 13 12 11 9 6 6 4 2 2 2 2 2 2 2
19 11 26 28 19 21 13 8 10 6 7 12 15 11 13 15 19 16 13 9 2 2 5 8 10 13 15 15 14 13 13 11 10 8 7 6 3 3 3 2 2 2 2 2
17 19 6 15 17 17 20 14 6 7 7 9 14 12 18 15 19 18 18 6 1 4 9 11 15 16 17 17 15 13 13 11 10 9 7 5 3 3 2 1 2 2 3 3
14 12 21 20 18 14 25 20 8 7 6 9 5 9 7 17 18 22 16 9 4 8 9 10 14 17 18 17 15 14 13 11 10 8 7 5 5 3 2 1 2 2 3 4
12 14 14 22 14 21 19 19 15 5 1 5 4 6 10 17 14 11 10 5 7 10 11 13 15 17 17 15 15 14 13 10 10 8 7 5 5 4 2 4 3 3 5 5
7 11 13 20 22 24 18 19 10 9 9 9 6 5 8 6 9 8 8 8 9 11 13 14 16 16 14 14 13 12 11 11 9 7 6 5 5 4 4 4 5 5 6 5
10 7 14 18 21 22 11 18 7 10 6 5 3 5 9 14 8 7 2 9 12 12 13 15 15 14 14 12 12 12 10 9 8 7 6 6 6 5 5 5 5 5 6 5
7 6 6 24 13 18 20 21 19 9 10 10 2 5 1 8 7 7 2 8 13 12 14 15 15 15 14 13 13 11 9 9 8 7 6 6 6 6 5 5 5 5 6 5
8 5 10 8 7 15 25 21 17 6 5 16 10 4 3 4 4 1 4 10 13 14 15 15 16 15 14 14 13 11 9 8 7 7 6 6 6 6 6 6 5 5 6 6
8 4 11 11 9 2 25 24 20 15 9 9 17 12 19 14 6 6 5 9 13 15 17 17 16 15 14 14 13 11 9 8 7 7 6 7 6 6 6 6 6 6 6 6
6 3 6 15 11 8 15 20 24 22 17 11 7 22 19 14 10 4 7 10 13 16 17 18 17 15 15 14 12 11 9 9 8 8 7 7 7 6 7 6 6 6 7 6
6 2 8 9 14 11 8 6 15 25 23 21 16 18 13 14 9 3 9 14 15 16 17 18 18 17 16 15 13 11 10 10 9 8 8 8 8 8 9 8 7 7 7 6
1 4 4 5 5 6 10 14 9 12 20 20 21 25 15 16 14 8 10 17 18 18 20 20 20 18 16 15 13 12 11 10 10 9 9 8 9 9 9 9 8 7 6 5
4 2 3 3 4 14 4 9 3 12 9 11 11 10 11 11 18 17 12 18 19 17 19 19 18 17 16 15 14 13 12 11 11 10 10 9 9 9 9 9 8 6 5 6
11 2 3 2 5 5 4 10 6 1 5 11 9 11 13 14 15 15 9 14 17 22 20 19 18 18 16 16 15 14 13 11 11 11 11 11 11 10 9 8 7 5 6 6
1 8 4 3 4 5 7 13 6 4 5 13 11 11 13 13 10 2 15 13 8 13 17 19 19 17 16 16 15 15 14 13 12 12 12 12 12 11 10 9 8 5 6 6
2 3 8 4 1 3 14 14 12 8 4 13 13 13 12 9 10 21 19 15 9 13 14 18 19 17 17 16 16 16 15 14 13 12 12 11 11 11 11 10 7 7 7 7
1 1 3 3 3 5 16 3 4 5 8 11 12 13 14 14 17 17 16 14 9 15 18 19 18 17 17 17 17 17 16 14 13 12 12 12 10 8 9 10 8 8 8 8
1 3 1 4 3 6 8 4 7 8 9 11 12 15 14 15 16 15 14 13 9 16 16 16 19 19 17 18 18 18 16 14 13 12 12 12 11 9 9 10 9 7 8 7
1 2 1 2 5 10 5 7 10 12 12 13 14 14 14 15 16 15 13 11 8 14 17 17 18 20 19 18 19 18 16 16 15 13 12 11 12 10 9 8 8 8 8 7
3 3 5 2 7 8 2 12 15 16 15 17 16 15 15 16 16 15 13 12 8 13 15 18 19 19 20 20 19 17 17 17 15 14 12 12 10 12 10 9 7 9 9 9
5 4 3 2 7 7 12 13 18 15 17 19 17 19 17 16 17 18 13 11 9 13 16 16 17 16 19 20 20 19 18 18 16 14 12 11 11 11 10 10 7 7 3 7
Wind_Direction
188 200 221 212 217 239 248 251 249 252 232 243 256 275 283 295 291 284 286 285 278 274 284 307 261 186 171 171 167 161 154 158 154 154 160 190 221 233 229 236 243 233 222 213
183 222 219 221 217 224 231 245 246 251 252 262 279 278 287 285 279 280 280 284 277 282 281 260 168 184 179 171 166 155 154 156 161 158 154 155 189 217 246 241 242 223 219 216
198 226 205 210 213 215 225 233 238 246 267 271 283 281 278 277 273 277 278 272 276 270 282 221 165 172 183 168 161 153 151 156 157 147 136 136 187 221 223 208 200 216 216 209
226 220 197 207 219 207 232 225 247 250 254 262 318 288 279 283 284 281 283 275 268 268 244 167 153 168 169 161 153 149 148 151 153 154 161 176 206 227 181 200 151 152 169 174
215 195 197 203 203 206 239 226 225 236 245 272 258 266 280 286 281 275 274 268 279 316 204 161 157 158 156 155 150 148 145 151 153 160 167 179 193 184 155 157 156 141 136 153
221 210 196 213 199 200 194 201 206 223 246 252 258 248 278 268 257 274 265 253 7 21 114 134 145 147 149 151 148 146 150 154 151 158 171 184 189 162 168 176 188 180 163 135
214 224 199 192 185 192 196 185 207 224 217 249 243 234 246 261 250 259 262 281 38 130 136 150 152 150 150 154 151 152 157 154 157 168 177 180 160 153 167 176 200 185 158 181
209 196 207 191 197 179 190 187 177 205 217 250 148 217 253 245 260 244 249 278 169 151 147 152 153 151 153 155 155 160 160 153 168 174 173 165 141 140 133 145 104 127 157 161
209 225 183 186 187 180 183 202 203 254 283 277 171 261 278 247 246 235 238 218 176 160 154 150 156 157 157 159 164 162 157 161 167 166 165 155 147 142 141 100 114 145 140 138
280 224 198 185 183 201 201 187 185 206 221 236 238 280 257 313 243 205 193 193 170 156 150 158 164 161 160 163 161 156 161 167 164 170 168 160 154 156 135 122 142 147 136 136
274 277 174 167 201 187 178 187 187 190 215 207 279 246 213 252 263 270 346 153 157 156 155 164 166 162 158 159 161 158 162 158 161 170 167 162 159 163 141 135 146 148 140 135
304 298 250 207 195 196 199 187 183 185 193 220 271 256 239 246 294 309 249 141 140 160 159 165 167 159 159 164 163 161 158 168 164 163 167 167 159 163 152 148 151 158 145 142
340 238 224 157 200 204 200 199 190 172 161 198 198 233 207 280 235 56 119 139 148 163 157 166 167 165 167 168 167 161 164 168 162 162 169 152 156 162 157 151 159 152 148 147
319 267 254 211 201 67 201 197 196 201 202 194 215 223 264 275 332 49 119 149 164 170 163 167 169 169 172 171 170 164 166 170 162 163 168 151 155 149 148 149 157 156 146 147
357 269 293 268 274 300 174 200 204 207 216 221 205 227 240 265 304 11 151 158 176 168 168 170 170 175 172 170 173 166 167 169 161 156 158 140 136 129 133 137 145 143 134 135
341 8 340 257 256 256 255 198 214 209 221 237 250 257 240 283 307 222 176 171 191 176 169 170 176 177 174 172 175 166 167 162 162 157 152 142 134 135 135 136 137 133 129 135
285 339 331 209 313 253 244 237 212 210 224 221 225 241 260 267 277 274 193 184 198 179 172 176 180 180 176 176 174 170 169 160 162 162 155 148 141 140 142 141 137 134 134 137
269 297 248 249 220 214 116 38 309 214 56 5 285 287 329 318 300 298 241 204 195 183 173 178 179 180 178 174 175 168 167 167 165 168 161 155 149 146 146 149 142 142 140 144
228 255 255 234 201 105 47 17 343 49 74 18 344 332 322 319 304 268 248 207 216 184 178 178 176 175 172 174 175 168 173 172 171 173 170 165 158 154 156 152 146 140 144 142
132 210 251 205 220 190 9 333 301 179 140 4 353 340 330 331 253 219 356 340 248 221 171 170 172 173 172 177 173 170 176 178 180 178 177 173 170 168 169 159 150 137 136 137
194 113 188 208 103 87 352 347 153 187 37 341 346 334 326 308 295 310 316 314 279 202 190 166 168 174 178 171 174 177 178 186 184 177 177 176 176 179 174 160 153 146 137 130
-0 279 175 203 162 136 359 18 75 353 338 334 336 333 322 312 304 305 305 297 270 194 178 178 169 176 175 173 176 181 185 185 181 174 176 177 177 179 172 168 156 149 146 136
61 357 16 6 49 356 348 25 43 1 334 338 332 330 328 320 318 314 305 297 269 199 183 188 174 173 176 178 181 184 188 180 177 176 176 176 175 176 177 175 166 159 163 158
16 330 25 318 354 338 351 46 7 354 345 340 337 329 332 324 326 318 311 299 261 202 188 178 189 175 178 182 186 189 179 179 179 179 180 176 175 175 177 181 180 176 177 174
356 314 350 352 348 337 45 1 348 338 344 343 338 336 334 333 329 328 315 304 280 206 194 180 191 185 181 181 186 183 182 179 181 181 178 180 183 182 176 188 183 191 193 187
348 4 4 19 298 284 298 325 327 335 334 341 335 334 333 342 334 333 321 310 288 214 193 187 188 190 185 184 184 181 182 182 178 183 181 182 184 186 187 182 180 54 4 202